GORIZONT 32 [-]

Last updated on Oct. 26, 2020, 5:52 a.m. UTC

1 23880U 96034A   20299.77430278 -.00000300  00000-0  00000-0 0  9997
2 23880  14.4373  11.0259 0011325 332.8721  68.3682  1.00147068 89390
UTC
Height (km)
Latitude
Longitude
Inclination
Orbital Period
UTC large
Height (km)
Speed (km/s)
/
Latitude / Longitude
Inclination (degrees)
Orbital Period (minutes)
Azimuth
Elevation
Range (km)
Doppler Factor
iOS Compass Heading
iOS Angle

Next 30 passes for location: Hong Kong

Rise time Rise Azimuth (degrees) Set time Set Azimuth (degrees) Duration Max altitude (degrees)

No matching passes for this satellites